Location: N�rnberg
(49.4471°N, 11.0632°E)
Time: 09:21:26
(UTC+01:00)

Tiangong - Pass Details

Date: 18 February 2026
Orbit: 381 x 391 km, 41.5° (Epoch: 7 March)

Event Time Altitude Azimuth Distance (km) Brightness Sun altitude
Rises 18:12:45 0° 250° (WSW) 2,258 4.0 -6.0°
Reaches altitude 10° 18:15:12 10° 232° (SW) 1,402 1.8 -6.4°
Maximum altitude 18:17:32 19° 184° (S) 987 0.1 -6.7°
Drops below altitude 10° 18:19:51 10° 136° (SE) 1,397 0.4 -7.1°
Enters shadow 18:21:21 - 123° (ESE) 1,901 0.9 -7.3°
